Weather in Phnom Penh

Cambodia     11˚33′10″N   104˚51′57″E
temp.,
°C
wind,
m/s
gust,
m/s
humid.,
%
clouds,
%
prec.,
mm/h
press.,
hPa
HPBL,
m
3 december, thu
thu301:00+23˚ne4137556 0.3 1011597
04:00+21˚nne313710 0.0 1011599
07:00+21˚nne414750 0.0 1012698
10:00+27˚ne812600 0.0 1014951
13:00+29˚nne79580 0.0 10111208
16:00+28˚nne69610 0.0 10091377
19:00+25˚nne614660 0.0 1011557
22:00+24˚ene513680 0.0 1013414
4 december, fri
fri401:00+22˚ne513730 0.0 1012473
04:00+20˚nne514730 0.0 1011574
07:00+20˚n414770 0.0 1013633
10:00+25˚nne8116110 0.0 1013900
13:00+27˚nne79575 0.0 10101215
16:00+27˚nne695932 0.0 10081407
19:00+23˚n487660 0.0 1011179
22:00+22˚n4107251 0.0 1013302
5 december, sat
sat501:00+22˚n5137169 0.0 1012564
04:00+20˚n5137328 0.0 1011530
07:00+20˚n6147935 0.0 1013630
10:00+25˚nne8116716 0.0 10141028
13:00+27˚nne795957 0.0 10111164
16:00+27˚nne6959100 0.0 10091200
19:00+23˚n4876100 0.0 1012223
22:00+22˚n4117445 0.0 1013264
6 december, sun
sun601:00+22˚n5117731 0.0 1012289
04:00+21˚n4108016 0.0 1011279
07:00+21˚n6128112 0.0 1013466
10:00+25˚nne7116657 0.0 10141047
13:00+28˚nne696179 0.0 10121198
16:00+28˚n6863100 0.0 10101183
19:00+23˚nnw4975100 0.0 1012226
22:00+23˚nnw5127283 0.0 1013307
7 december, mon
mon701:00+22˚n4107674 0.0 1011267
04:00+22˚n51280100 0.0 1011338
07:00+22˚n51183100 0.0 1013343
10:00+26˚n686799 0.0 1014650
13:00+29˚nne795983 0.0 10111301
16:00+29˚n686021 0.0 10091360
19:00+25˚n4107529 0.0 1011252
22:00+24˚n4107379 0.0 1013256